Regional Weather Roundup
Issued by NWS Sterling, VA

Home | Current Version | Previous Version | Graphics & Text | Print | Product List | Glossary On
Versions: 1 2 3 4 5 6 7 8 9 10 11 12 13 14 15 16 17 18 19 20 21 22 23 24 25 26 27 28 29 30 31 32 33 34 35 36 37 38 39 40 41 42 43 44 45 46 47 48 49 50
000
ASUS41 KLWX 221410
RWRLWX

REGIONAL WEATHER ROUNDUP
NATIONAL WEATHER SERVICE BALTIMORE MD/WASHINGTON DC
1000 AM EDT FRI AUG 22 2014

Note: "FAIR" indicates few or no clouds below 12,000 feet
with no significant weather and/or obstructions to visibility.
 TC=TEMPERATURE CELSIUS

 * =Non NWS site. Station does not report precipitation (e.g. rain,
    snow, etc.), thunder, or fog.

DCZ001-MDZ009-015-VAZ040>042-051-053>054-221500-
WASHINGTON METRO
  /KDAA//-FT BELVOIR

CITY           SKY/WX    TMP DP  RH WIND       PRES   REMARKS
WASHINGTON NAT PTSUNNY   80  68  66 NE8       30.00F
DULLES         DRIZZLE   74  66  76 NE9       30.02R
ANDREWS AFB    MOSUNNY   76  70  83 NE5       30.01R
QUANTICO       PTSUNNY   78  67  68 NE8       30.00F
COLLEGE PARK*  PTSUNNY   77  70  78 CALM      30.00S
LEESBURG*      PTSUNNY   73  70  88 NE6       30.03S
GAITHERSBURG*  MOSUNNY   73  70  88 E3        30.06R

$$

MDZ006>007-011-014-221500-
BALTIMORE METRO

CITY           SKY/WX    TMP DP  RH WIND       PRES   REMARKS
BWI AIRPORT    CLOUDY    75  69  81 NE7       30.00S
MD SCIENCE CTR   N/A     75  69  81 MISG      30.01S
MARTIN STATE   CLOUDY    75  72  88 CALM      30.02S
ANNAPOLIS        N/A     76  69  79 NE7       29.99S
FORT MEADE*    CLOUDY    73  68  83 NE3       30.02F

$$

MDZ012-015-019>023-221500-
MARYLAND EASTERN SHORE

CITY           SKY/WX    TMP DP  RH WIND       PRES   REMARKS
OCEAN CITY     SUNNY     78  72  81 CALM      29.96F
SALISBURY      MOSUNNY   81  70  69 NE3       29.97S
BAY BRIDGE AP*   N/A     79  68  69 E6        29.99F
CAMBRIDGE*     CLOUDY    77  70  78 N6        29.98S
EASTON*        PTSUNNY   77  77 100 CALM      30.03

$$

MDZ017>025-221500-
SOUTHERN MARYLAND

CITY           SKY/WX    TMP DP  RH WIND       PRES   REMARKS
PATUXENT RIVER PTSUNNY   79  71  76 N5        29.98S
ST INIGOES     SUNNY     79  68  69 CALM      29.98S
LEONARDTOWN*   PTSUNNY   77  68  73 CALM      30.01

$$

MDZ003>005-221500-
NORTH CENTRAL MARYLAND

CITY           SKY/WX    TMP DP  RH WIND       PRES   REMARKS
FREDERICK*     CLOUDY    73  72  94 CALM      30.05S
HAGERSTOWN APT PTSUNNY   71  67  87 E6        30.03S
WESTMINSTER*   MOSUNNY   73  70  88 NE3       30.03F FOG

$$

MDZ501>502-221500-
WESTERN MARYLAND

CITY           SKY/WX    TMP DP  RH WIND       PRES   REMARKS
OAKLAND*       FOG       64 N/A N/A W3        30.11S VSB 3/4
CUMBERLAND*    PTSUNNY   72  68  88 CALM      30.07R

$$

VAZ025>031-221500-
SHENANDOAH VALLEY

CITY           SKY/WX    TMP DP  RH WIND       PRES   REMARKS
WINCHESTER*    DRIZZLE   72  68  88 CALM      30.03R
STAUNTON*      CLOUDY    71  68  90 CALM      30.07S

$$

WVZ021-048>050-054>055-221500-
EASTERN WEST VIRGINIA PANHANDLE

CITY           SKY/WX    TMP DP  RH WIND       PRES   REMARKS
MARTINSBURG    PTSUNNY   75  66  73 CALM      30.03R
PETERSBURG*    NOT AVBL

$$

VAZ036>039-050-221500-
CENTRAL FOOTHILLS

CITY           SKY/WX    TMP DP  RH WIND       PRES   REMARKS
CHARLOTTESVILL LGT RAIN  73  68  84 NW3       30.02S
ORANGE*        LGT RAIN  73  70  88 CALM      30.03S

$$

VAZ055>057-221500-
NORTH AND CENTRAL PIEDMONT

CITY           SKY/WX    TMP DP  RH WIND       PRES   REMARKS
FREDERICKSBRG* PTSUNNY   80  68  67 NE6       29.99S
STAFFORD*      PTSUNNY   77  70  79 NE3       30.04S

$$

NCZ024-NYZ072-PAZ021-071-VAZ022-071-221500-
OTHER REGIONAL OBSERVATIONS

CITY           SKY/WX    TMP DP  RH WIND       PRES   REMARKS
NEW YORK CITY  PTSUNNY   72  63  73 NE8       30.08R
PHILADELPHIA   CLOUDY    72  66  81 E5        30.03R
PITTSBURGH     CLOUDY    72  67  84 CALM      30.03S
ROANOKE        LGT RAIN  73  69  87 CALM      30.09S
RICHMOND       PTSUNNY   82  69  64 CALM      30.01R
RALEIGH        PTSUNNY   82  71  69 SW3       30.04S

$$

ANZ530>537-221500-
MARINE OBSERVATIONS

STATION/POSITION TIME  TEMP    WIND        PRES
                       AIR SEA DIR/SP/G
                 (UTC) (F)     (DEG/KT/KT) (MB)
THOMAS PT LIGHT  1400   75 78   70/  6/  7 1016.0S
BALT KEY BRIDGE  1400   73      20/  7/  8 1015.8F
COVE POINT       1400   75      10/  8/ 13 1015.3R
LEWISETTA        1400   77 80  350/  6/ 10 1015.1S
SOLOMONS ISLAND  1400      80                N/A
PINEY POINT      1400          320/  6/  7   N/A

$$




USA.gov is the U.S. government's official web portal to all federal, state and local government web resources and services.